Regional Weather Roundup
Issued by NWS

Home | Current Version | Previous Version | Text Only | Print | Product List | Glossary On
Versions: 1 2 3 4 5 6 7 8 9 10 11 12 13 14 15 16 17 18 19 20 21 22 23 24 25 26 27 28 29 30 31 32 33 34 35 36 37 38 39 40 41 42 43 44 45 46 47 48 49 50
000
ASUS45 KBOI 111310
RWRID

IDAHO REGIONAL WEATHER ROUNDUP
NATIONAL WEATHER SERVICE BOISE ID
600 AM MST THU FEB 11 2016

NOTE: "FAIR" INDICATES FEW OR NO CLOUDS BELOW 12000 FEET
WITH NO SIGNIFICANT WEATHER AND/OR OBSTRUCTIONS TO VISIBILITY

IDZ012-014-111400-
SOUTHWEST IDAHO


CITY           SKY/WX    TMP DP  RH WIND       PRES   REMARKS
BOISE          MOCLDY    32  30  92 W3        30.41R
CALDWELL       MOCLDY    29  28  96 NE3       30.42R FOG
MOUNTAIN HOME  CLOUDY    29  28  97 E7        30.39S WCI  22
$$

IDZ016-017-111400-
SOUTHCENTRAL IDAHO


CITY           SKY/WX    TMP DP  RH WIND       PRES   REMARKS
BURLEY         PTCLDY    23  20  88 N6        30.35F WCI  16
JEROME         MOCLDY    27  22  81 E12       30.37S WCI  17
TWIN FALLS     CLOUDY    30  28  92 S5        30.35F WCI  25
$$

IDZ019>023-111400-
SOUTHEAST IDAHO


CITY           SKY/WX    TMP DP  RH WIND       PRES   REMARKS
IDAHO FALLS    CLOUDY    14  10  84 N9        30.40S WCI   2
POCATELLO      CLOUDY    20  18  92 N9        30.40R WCI   9
REXBURG        CLOUDY    16  13  88 E3        30.39R
$$

IDZ006-010-011-018-031-032-111400-
CENTRAL IDAHO MOUNTAINS


CITY           SKY/WX    TMP DP  RH WIND       PRES   REMARKS
MCCALL         CLOUDY    27  25  92 CALM      30.32F
HAILEY         CLEAR     21  19  93 CALM      30.37S
STANLEY          N/A     11   8  88 CALM      30.38S
SALMON         CLOUDY    12  10  92 CALM      30.41R
CHALLIS        MOCLDY    15  12  88 CALM      30.35S
$$

IDZ002-004-006-007-026-111400-
NORTHERN IDAHO


CITY           SKY/WX    TMP DP  RH WIND       PRES   REMARKS
LEWISTON       CLOUDY    45  35  68 E8        30.31S
LOWELL           N/A     34  33  96 CALM      30.38R
COEUR D`ALENE  CLOUDY    32  30  93 CALM      30.28S
MULLAN PASS    CLOUDY    33  31  92 VRB5      30.25S WCI  29
$$



USA.gov is the U.S. government's official web portal to all federal, state and local government web resources and services.